Location: Unspecified
(0.0000°N, 0.0000°E)
Time: 13:34:08
(UTC+00:00)

Envisat - Pass Details

Date: 29 November 2021
Orbit: 764 x 766 km, 98.2° (Epoch: 07 December)

Event Time Altitude Azimuth Distance (km) Brightness Sun altitude
Rises 03:51:24 0° 35° (NE) 3,214 6.4 -27.0°
Reaches altitude 10° 03:54:04 10° 48° (NE) 2,291 5.7 -26.4°
Maximum altitude 03:58:08 25° 102° (ESE) 1,508 5.2 -25.5°
Drops below altitude 10° 04:02:14 10° 156° (SSE) 2,300 6.1 -24.5°
Sets 04:04:54 0° 169° (S) 3,229 6.7 -23.9°
